CAPE
0 0 0 0 0 0 0 0 1 5 117 195 392 433 1089 1186 1656 458 143 117 33 187 696 822 725 353 21 0 0 0 15 121 285 264 41 188 470 377 258 169 201 272 201 97 5 0 0 0 0
0 0 0 0 0 0 0 0 0 4 83 183 374 848 624 1226 1302 1040 150 77 6 222 753 997 624 348 153 0 0 2 85 235 247 120 19 69 347 387 380 334 306 348 259 173 53 0 0 0 0
0 0 0 0 0 0 0 0 11 6 78 298 268 537 632 1217 1345 1006 85 104 1 288 825 1043 608 279 253 0 0 20 136 237 186 74 0 26 262 499 503 505 412 425 385 261 136 2 0 0 0
0 0 0 0 0 0 0 1 120 132 81 405 511 201 436 1212 1032 176 48 26 0 436 873 1026 523 359 301 14 0 32 130 210 150 57 0 13 231 511 546 507 579 556 480 346 163 85 0 0 0
0 0 0 0 0 0 0 0 0 0 65 30 450 958 723 1376 384 4 13 13 61 590 854 1065 563 427 331 58 3 48 164 198 147 62 0 0 123 438 566 562 569 532 608 395 235 144 52 39 0
0 0 0 0 0 0 0 3 0 0 98 106 464 824 956 1270 527 16 48 48 445 569 621 1129 856 518 398 115 27 79 163 196 156 59 0 0 80 347 609 746 786 703 627 704 558 280 125 62 23
0 0 0 0 0 0 0 0 0 0 70 154 867 318 1353 1258 540 157 56 424 526 373 237 1000 1083 772 559 269 80 130 157 177 115 47 1 0 59 219 415 601 777 769 582 600 647 565 297 149 114
0 0 0 0 0 0 0 0 0 0 19 978 392 32 1073 1064 683 338 178 571 607 422 145 329 904 1043 736 494 179 193 134 120 87 22 0 0 62 159 319 426 646 781 772 913 658 556 330 146 38
0 0 0 0 0 0 0 0 0 0 0 129 254 279 1300 1013 686 425 235 591 588 387 81 226 345 632 653 567 520 331 201 137 93 9 0 23 67 120 182 201 189 272 431 632 872 715 436 191 63
0 0 0 0 0 0 0 0 0 0 0 246 515 11 779 1448 1244 821 466 383 384 237 109 75 79 152 389 537 594 345 231 210 87 7 0 0 0 10 134 18 281 114 7 103 378 623 517 379 167
0 0 0 0 0 0 0 0 0 0 0 50 555 191 801 646 1594 1473 1043 186 192 156 146 90 35 22 103 217 244 109 131 113 68 7 0 0 0 60 193 169 210 145 33 0 4 50 327 359 173
0 0 0 0 0 0 0 0 0 0 0 143 740 636 676 890 1047 1144 1015 372 183 189 40 46 10 0 0 227 16 7 69 89 55 54 57 2 0 134 80 190 95 38 2 0 0 0 37 144 373
0 0 0 0 0 0 0 0 0 0 0 432 517 295 141 6 467 831 336 38 164 195 284 74 33 2 97 152 50 16 35 100 86 63 116 94 48 80 255 136 86 81 0 0 0 51 149 270 393
0 0 0 0 0 0 0 0 0 0 0 20 51 18 8 4 112 479 171 5 0 0 371 308 141 94 513 404 163 93 135 188 253 233 326 263 346 387 742 428 398 283 75 50 14 10 61 276 122
0 0 0 0 0 0 0 0 0 0 0 0 42 59 145 201 563 608 392 71 35 27 421 713 443 409 606 799 662 262 105 308 340 481 538 532 769 593 853 830 528 424 289 202 168 204 266 23 140
0 0 0 0 0 0 0 0 0 0 0 0 0 36 73 512 476 795 669 617 368 285 283 804 820 657 649 654 1363 1465 1254 853 729 909 1005 899 889 1250 1181 1155 986 660 510 314 160 90 234 362 385
0 0 0 0 0 0 0 0 0 0 0 0 0 0 0 538 626 1216 1430 877 614 937 1062 1015 1391 1197 1294 970 1140 1464 1435 1286 1196 1015 1104 1428 1219 1083 1064 1284 873 1032 788 603 372 251 207 442 453
0 0 0 0 0 0 0 0 0 0 0 0 0 0 6 327 310 599 849 819 465 5 895 1560 1857 1887 1805 2090 1753 1697 1357 1393 1411 1201 1076 1591 1550 1318 1053 1066 1244 929 1076 682 546 474 529 660 582
0 0 0 0 0 0 0 0 0 0 0 0 0 0 27 158 183 211 238 52 2 0 511 1748 2107 2484 2244 2007 2024 1938 1692 1306 1279 1416 1154 1235 1592 1532 1382 1186 1192 1454 1333 985 699 622 421 456 729
0 0 0 0 0 0 0 0 0 0 0 0 0 0 0 116 275 298 274 260 380 947 1689 2258 2587 2996 2785 2443 2028 1829 1782 1787 1620 1450 1527 1447 1745 1617 1538 1553 1347 1171 1443 1230 997 930 1107 899 827
0 0 0 0 0 0 0 0 0 0 0 0 0 1 59 142 163 406 656 583 541 537 705 930 1183 1618 2130 2537 3213 2922 2683 2353 2161 2084 1706 1513 1738 1915 1740 1694 1727 1527 1517 1512 1269 1304 1372 897 982
0 0 0 0 0 0 0 0 0 0 0 0 0 3 115 162 237 429 790 814 834 1112 1206 1148 922 560 719 1094 1948 2670 2807 2814 2658 2542 2402 2025 1825 1829 1942 1906 1794 1623 1659 1685 1435 1535 1449 1217 703
0 0 0 0 0 0 0 0 0 0 0 3 8 11 170 205 84 96 288 545 657 865 973 988 1087 1386 1509 1088 555 1347 1791 2601 2759 2515 2486 2358 2290 2077 1924 1992 1911 1744 1739 1811 1763 1671 1335 1193 989
0 0 0 0 0 0 0 4 0 1 98 107 71 70 145 136 19 0 2 111 54 156 77 82 246 444 670 962 1261 1349 1476 1718 1861 1889 1761 1596 1569 1684 1819 1634 1474 182 0 1115 1713 1342 1357 1252 1153
0 2 0 0 0 0 0 1 16 14 19 1 99 29 78 58 0 0 0 0 0 0 0 0 0 0 40 192 428 592 817 990 1060 1021 1033 1167 1151 776 653 527 336 71 46 0 345 942 1488 1369 1166
0 9 20 0 0 0 0 11 9 2 1 1 7 9 39 6 0 0 0 0 0 0 0 0 0 0 0 0 0 4 53 105 95 102 180 281 221 384 134 51 134 73 34 1 4 56 1147 1632 1211
0 0 1 30 1 0 0 0 132 0 0 2 0 0 0 0 0 0 0 0 0 0 0 0 0 0 0 0 0 0 0 0 13 14 9 20 10 179 259 171 71 4 0 0 0 0 683 1392 1338
0 0 0 26 17 20 20 1 0 0 0 0 0 0 3 4 0 6 0 0 0 0 0 0 0 0 0 0 0 0 0 0 0 0 0 0 0 0 49 100 80 1 0 0 0 0 432 839 1226
0 0 0 0 0 1 4 22 0 0 0 0 0 0 0 10 4 0 5 0 0 0 0 0 0 0 0 0 0 0 0 0 0 0 0 0 0 0 0 28 46 139 33 0 0 0 117 8 758
0 0 0 0 0 0 0 0 0 0 0 0 0 0 0 2 3 0 0 0 0 0 0 0 0 0 0 0 0 0 0 0 0 0 0 0 0 0 0 2 0 47 119 172 13 0 0 0 16
CIN
0 0 0 0 0 0 0 0 -2 -89 -96 -88 -84 -97 -90 -53 -51 -58 -390 -383 -547 -430 -322 -287 -275 -332 -439 0 0 0 -376 -319 -228 -213 -358 -212 -116 -118 -122 -135 -109 -84 -96 -124 -86 0 0 0 0
0 0 0 0 0 0 0 -28 -33 -44 -114 -111 -85 -75 -96 -100 -88 -164 -373 -405 -478 -423 -316 -283 -302 -312 -370 0 0 -169 -360 -248 -229 -283 -424 -309 -144 -119 -109 -89 -77 -57 -73 -105 -152 0 0 0 0
0 0 0 0 0 0 0 -8 -16 -53 -54 -49 -87 -87 -98 -75 -106 -148 -411 -318 -131 -364 -313 -276 -312 -352 -330 0 0 -506 -332 -254 -267 -362 0 -393 -160 -98 -78 -57 -63 -44 -44 -69 -107 -14 0 0 0
0 0 0 0 0 0 0 -15 -34 -46 -56 -48 -86 -115 -167 -76 -87 -331 -431 -408 0 -338 -312 -277 -322 -343 -335 -496 0 -507 -373 -280 -316 -433 -35 -419 -168 -90 -64 -52 -33 -30 -37 -53 -96 -123 0 0 0
0 0 0 0 0 0 0 0 0 0 -105 -51 -47 -78 -144 -107 -155 -95 -390 -373 -353 -317 -298 -273 -319 -319 -330 -489 -590 -495 -371 -317 -353 -418 -35 0 -219 -107 -59 -49 -38 -37 -32 -56 -84 -93 -110 -119 0
0 0 0 0 0 0 0 -7 0 0 -142 -82 -71 -84 -113 -111 -145 -325 -332 -409 -319 -311 -333 -245 -277 -320 -332 -422 -534 -462 -379 -333 -360 -431 -35 0 -261 -131 -60 -37 -33 -34 -43 -22 -32 -62 -81 -97 -108
0 0 0 0 0 0 0 0 -6 0 -43 -112 -61 -123 -66 -78 -163 -240 -290 -358 -315 -359 -427 -267 -236 -275 -297 -362 -462 -413 -386 -349 -372 -446 -33 0 -314 -170 -101 -66 -42 -39 -46 -31 -30 -28 -54 -77 -89
0 0 0 0 0 0 0 0 0 0 -17 -61 -152 -174 -76 -120 -155 -206 -289 -303 -318 -352 -461 -408 -273 -238 -280 -313 -395 -385 -413 -408 -404 -462 0 -4 -349 -226 -134 -114 -74 -52 -33 -17 -39 -33 -54 -81 -122
0 0 0 0 0 0 0 0 0 0 0 -51 -115 -108 -129 -154 -140 -168 -203 -255 -331 -337 -483 -454 -403 -322 -305 -307 -299 -334 -384 -429 -430 -482 0 -449 -381 -285 -238 -197 -191 -140 -101 -57 -35 -38 -52 -97 -120
0 0 0 0 0 0 0 0 0 0 0 -70 -94 -140 -171 -124 -109 -106 -116 -239 -308 -293 -344 -424 -479 -451 -376 -316 -311 -370 -420 -403 -492 -551 0 0 0 -473 -269 -328 -185 -206 -100 -170 -106 -74 -66 -84 -120
0 0 0 0 0 0 0 0 0 0 0 -55 -41 -184 -199 -223 -70 -60 -37 -83 -186 -269 -350 -395 -509 -551 -462 -395 -429 -486 -482 -470 -514 -561 0 0 0 -346 -236 -223 -214 -221 -244 0 -29 -165 -119 -103 -112
0 0 0 0 0 0 0 0 0 0 0 -88 -230 -300 -171 -103 -87 -53 -32 -152 -210 -345 -311 -362 -396 0 0 -378 -324 -300 -469 -461 -496 -471 -418 -39 0 -302 -304 -222 -213 -252 -257 0 0 0 -179 -114 -78
0 0 0 0 0 0 0 0 0 0 0 -170 -266 -304 -290 -167 -124 -105 -236 -678 -161 -276 -246 -256 -326 -68 -424 -361 -410 -463 -401 -382 -398 -400 -338 -316 -329 -288 -206 -197 -203 -213 0 0 0 -196 -120 -77 -53
0 0 0 0 0 0 0 0 0 0 0 -48 -194 -144 -177 -269 -139 -128 -272 -26 0 0 -166 -195 -294 -277 -283 -285 -329 -341 -352 -296 -307 -318 -255 -244 -195 -166 -96 -79 -97 -127 -201 -239 -186 -156 -182 -53 -116
0 0 0 0 0 0 0 0 0 0 0 0 -188 -178 -137 -90 -92 -112 -190 -319 -367 -199 -219 -164 -223 -196 -173 -183 -215 -266 -294 -278 -265 -244 -239 -205 -145 -108 -93 -81 -70 -58 -57 -107 -160 -124 -63 -124 -43
0 0 0 0 0 0 0 0 0 0 0 0 0 -197 -139 -99 -132 -68 -212 -266 -242 -278 -250 -147 -172 -161 -136 -140 -105 -103 -102 -125 -142 -159 -180 -190 -163 -106 -83 -82 -74 -77 -58 -68 -78 -105 -43 -22 -19
0 0 0 0 0 0 0 0 0 0 0 0 0 0 0 -115 -135 -184 -156 -141 -135 -75 -82 -101 -131 -151 -117 -106 -105 -98 -84 -84 -72 -80 -86 -108 -120 -116 -76 -74 -83 -52 -53 -41 -50 -56 -67 -18 -13
0 0 0 0 0 0 0 0 0 0 0 0 0 0 -48 -193 -223 -282 -280 -233 -171 -43 -80 -44 -80 -113 -115 -91 -92 -88 -101 -99 -92 -91 -85 -71 -99 -99 -85 -85 -82 -51 -43 -43 -38 -26 -24 -10 -11
0 0 0 0 0 0 0 0 0 0 0 0 0 0 -198 -257 -300 -320 -400 -443 -358 0 -273 -27 -32 -52 -94 -100 -92 -100 -108 -123 -122 -100 -89 -86 -76 -82 -96 -84 -75 -47 -40 -39 -36 -27 -26 -13 -25
0 0 0 0 0 0 0 0 0 0 0 0 0 0 0 -294 -314 -282 -289 -352 -307 -177 -86 -62 -37 -30 -41 -75 -94 -97 -85 -95 -92 -92 -87 -77 -75 -73 -83 -90 -74 -73 -43 -35 -32 -23 -13 -14 -19
0 0 0 0 0 0 0 0 0 0 0 0 0 -25 -217 -266 -284 -285 -310 -312 -258 -228 -237 -206 -215 -168 -115 -65 -20 -28 -39 -36 -49 -54 -57 -55 -55 -67 -88 -103 -89 -59 -46 -32 -35 -26 -16 -14 -20
0 0 0 0 0 0 0 0 0 0 0 0 0 -74 -197 -249 -334 -330 -333 -331 -303 -266 -261 -249 -276 -296 -263 -206 -113 -45 -21 -10 -15 -12 -15 -25 -34 -46 -77 -93 -94 -67 -70 -61 -61 -30 -16 -15 -16
0 -1 0 0 0 0 0 0 0 0 -1 -32 -70 -96 -164 -260 -363 -410 -372 -361 -300 -253 -261 -289 -280 -229 -200 -245 -283 -156 -92 -46 -23 -35 -43 -52 -49 -45 -51 -65 -75 -79 -66 -65 -56 -32 -40 -32 -30
0 -5 0 0 0 0 0 -23 0 -5 -72 -55 -40 -80 -173 -241 -365 0 -190 -429 -438 -377 -434 -458 -423 -380 -334 -279 -229 -188 -152 -128 -114 -117 -109 -133 -84 -53 -19 -33 -61 -263 -18 -31 -21 -29 -25 -37 -35
0 -17 0 0 0 0 0 -14 -100 -253 -370 -53 -51 -63 -109 -194 0 0 0 0 0 0 0 0 0 0 -400 -419 -373 -332 -278 -241 -225 -244 -206 -189 -125 -125 -119 -134 -151 -178 -142 0 -84 -37 -8 -11 -26
0 -43 -21 0 0 0 0 -50 -234 -265 -117 -68 -44 -26 -160 -155 -18 0 0 0 0 0 0 0 0 0 0 0 0 -59 -465 -434 -435 -442 -419 -344 -295 -145 -178 -265 -329 -384 -371 -128 -339 -187 -42 -10 -15
0 0 -13 -56 -6 -2 0 0 -36 0 0 -35 0 0 0 0 0 0 0 0 0 0 0 0 0 0 0 0 0 0 0 0 -460 -469 -405 -384 -307 -160 -83 -132 -271 -75 0 0 0 0 -74 -38 -37
0 0 0 -52 -18 -18 -55 -44 0 0 0 -19 0 0 -7 -8 0 -34 0 0 0 0 0 0 0 0 0 0 0 0 0 0 0 0 0 0 0 0 -62 -76 -99 -22 0 0 0 0 -82 -46 -37
0 0 -7 0 0 -7 -18 -73 0 0 0 0 0 0 0 -18 -8 0 -14 0 0 0 0 0 0 0 0 0 0 0 0 0 0 0 0 0 0 0 0 -28 -77 -44 -133 0 0 0 -116 -110 -78
0 0 0 0 0 0 0 0 0 0 0 0 0 0 0 -15 -23 -5 0 0 0 0 0 0 0 0 0 0 0 0 0 0 0 0 0 0 0 0 0 -1 0 -104 -48 -105 -288 0 -2 -3 -96
Wind_Speed
21 21 19 16 14 14 20 19 11 12 18 19 19 19 20 19 16 14 15 14 16 16 14 13 13 12 13 13 14 16 17 18 19 21 22 23 23 22 22 23 24 25 26 26 27 28 28 27 27
20 19 18 18 12 14 16 11 23 16 14 18 20 19 21 19 17 15 15 14 15 14 13 12 13 11 11 13 14 14 15 16 18 20 21 21 22 22 22 22 22 23 23 24 25 26 26 26 26
19 19 17 17 15 17 20 19 18 13 13 13 17 18 19 18 17 17 17 16 18 13 10 13 13 12 11 13 14 14 15 16 18 19 20 20 20 20 21 20 21 21 22 22 23 23 24 24 24
18 17 19 18 23 22 21 22 15 15 15 18 15 17 18 18 15 16 20 20 17 14 10 12 13 12 11 11 13 14 15 16 17 17 19 19 19 19 19 19 19 19 19 20 21 21 22 22 22
19 19 19 22 24 24 21 14 11 16 15 19 16 14 15 17 18 22 23 22 19 17 11 10 13 11 11 11 12 14 15 16 16 17 17 17 17 17 17 17 17 17 18 18 19 19 19 20 20
20 19 19 24 27 29 23 2 14 20 12 13 12 11 14 12 15 19 21 22 22 21 15 8 9 11 11 11 12 14 14 14 15 15 16 16 15 16 15 16 16 16 16 16 16 17 17 18 18
23 24 26 27 27 26 24 9 15 17 21 4 8 17 16 11 15 16 16 19 20 19 16 11 7 8 9 11 11 11 12 12 12 13 13 14 15 14 14 15 15 15 14 14 14 14 15 15 15
22 23 26 27 25 23 23 22 19 17 17 8 9 11 10 13 13 13 11 14 14 13 11 10 8 5 7 7 10 10 11 11 11 11 11 12 14 14 13 14 14 14 14 14 13 13 12 12 11
28 26 28 28 25 27 32 22 19 17 19 19 16 9 8 11 12 7 7 9 10 9 8 8 7 8 6 4 4 6 8 9 8 8 9 11 11 12 12 12 13 13 13 12 12 11 10 9 9
17 16 28 33 32 32 31 24 23 20 18 16 12 11 7 8 6 6 5 7 6 6 6 7 7 8 7 4 4 3 5 4 5 7 7 10 10 10 11 11 11 11 12 11 10 9 8 8 8
20 19 28 31 29 28 32 28 26 26 25 21 9 7 8 18 5 4 5 2 4 7 9 10 10 8 5 2 3 3 5 4 5 6 8 5 6 7 8 9 10 10 11 11 10 9 9 9 8
20 25 22 28 29 33 34 30 30 29 29 19 9 6 8 28 24 31 4 9 7 6 5 13 13 11 9 5 4 3 3 3 3 5 7 8 7 6 4 6 6 7 8 8 9 10 7 7 6
17 19 23 30 33 33 33 35 34 35 30 12 8 5 5 10 20 26 1 9 7 9 9 16 14 12 7 8 4 4 3 2 6 5 6 5 4 3 3 3 4 4 5 5 6 7 7 6 5
22 21 20 21 26 34 29 34 33 34 31 12 5 4 5 6 11 9 4 4 3 6 16 19 16 12 7 5 6 3 3 4 5 4 5 5 3 3 2 1 1 1 2 3 3 4 4 5 5
28 27 29 28 28 24 32 30 7 33 32 33 4 4 5 3 11 11 9 6 7 17 17 20 14 12 8 7 6 5 4 4 3 4 5 4 3 2 0 4 2 3 4 4 3 6 8 5 6
30 28 24 25 6 16 7 15 10 32 21 28 15 4 3 3 10 7 6 8 9 16 33 14 9 9 7 6 1 1 1 0 2 4 4 6 6 3 2 3 2 1 6 7 10 9 11 7 6
20 19 18 15 6 9 12 14 11 14 26 9 18 12 6 3 7 6 4 8 11 5 3 6 7 8 4 2 4 2 4 5 4 4 4 5 7 6 5 5 5 6 9 11 10 7 7 6 5
21 22 24 24 29 30 35 15 13 12 18 25 12 10 6 5 8 7 3 3 4 5 4 2 3 4 3 1 2 5 6 7 9 6 7 5 6 7 7 7 7 7 12 10 11 10 9 10 6
19 25 31 33 33 33 33 28 17 18 16 17 21 14 6 3 5 6 5 5 7 5 7 5 4 3 4 6 6 7 7 9 9 8 8 8 8 8 9 9 9 8 9 8 10 12 11 10 10
29 35 37 36 33 34 35 39 33 17 22 23 15 6 6 3 4 5 6 7 7 7 5 8 9 9 7 7 8 9 10 12 11 10 9 10 9 9 9 9 9 9 11 11 12 13 17 14 11
21 26 33 37 34 35 38 41 34 27 24 22 13 8 7 7 7 7 9 10 9 11 11 13 15 15 14 14 12 11 11 14 15 15 13 12 11 10 10 10 10 10 13 13 11 12 15 17 18
21 21 26 31 34 33 24 39 36 33 24 18 14 9 9 9 9 9 9 11 12 14 13 13 14 16 15 16 16 17 19 18 18 19 18 14 15 14 14 14 14 14 14 15 14 13 14 19 20
23 23 30 30 33 38 34 32 35 30 24 18 15 14 11 9 9 9 8 10 10 11 11 11 12 13 14 16 16 17 21 22 23 26 28 28 29 19 18 19 19 18 18 18 15 19 18 17 22
30 32 27 28 29 32 33 31 42 36 32 28 22 13 11 10 9 8 9 9 9 10 10 11 12 13 14 15 16 16 19 21 23 28 31 32 32 36 35 30 28 14 30 37 30 28 25 16 18
24 26 31 31 30 32 30 35 23 32 38 43 23 18 15 11 9 8 7 7 8 9 10 11 13 13 15 15 17 18 19 21 23 27 31 34 34 34 35 33 34 39 31 43 40 39 34 32 25
26 22 24 30 29 35 38 29 30 32 37 33 20 22 10 7 7 7 5 6 9 10 12 12 13 14 16 17 18 19 20 22 23 26 30 31 32 34 34 33 34 31 18 14 15 40 41 30 29
26 25 18 26 26 32 34 36 31 33 34 27 22 15 19 4 11 11 2 6 7 10 13 14 15 15 17 19 21 22 22 24 25 27 29 30 31 33 34 33 30 25 18 12 14 18 23 32 31
21 22 24 23 29 30 30 33 35 34 33 30 25 18 20 20 10 14 15 8 10 12 13 17 18 17 18 21 24 25 26 27 29 30 32 33 33 34 34 33 27 24 20 15 16 20 23 25 31
29 24 21 21 23 27 33 31 25 27 28 27 26 25 24 23 24 20 20 15 15 16 17 18 20 21 22 23 25 28 29 31 32 34 35 36 35 34 35 33 31 29 21 19 18 19 18 18 36
23 20 19 23 24 24 31 39 21 22 23 23 21 21 25 31 29 21 16 15 13 17 19 21 23 25 27 27 28 30 31 33 35 36 38 38 37 34 33 34 34 32 30 21 22 21 22 29 33
Wind_Direction
254 251 250 245 273 301 283 309 356 310 347 27 18 27 21 6 360 14 74 83 93 106 105 105 103 95 90 86 81 77 72 70 68 68 69 69 66 64 62 61 63 64 61 58 53 51 50 51 52
262 258 230 233 286 305 286 354 315 281 10 40 26 27 13 13 10 50 71 89 101 105 103 107 109 101 92 88 85 79 72 69 68 70 70 70 72 70 65 64 63 61 59 57 54 52 51 52 52
257 243 250 253 272 281 272 280 223 177 62 359 359 3 2 4 40 79 79 91 105 106 105 111 111 107 97 92 89 84 78 74 74 73 72 73 74 72 71 66 65 63 60 56 55 54 52 48 43
258 244 239 259 239 242 253 265 337 10 343 7 10 356 5 353 39 62 89 97 104 109 112 115 114 110 103 96 94 90 86 81 78 74 74 75 75 73 70 68 65 61 58 56 55 55 51 42 40
261 240 258 244 230 241 229 232 137 348 353 348 326 338 356 15 68 90 97 99 103 111 113 119 118 114 107 100 96 95 90 88 81 77 76 73 70 69 69 66 63 62 61 60 60 55 47 41 37
257 262 272 248 255 271 256 77 329 325 16 18 346 11 352 54 81 95 99 104 108 115 115 119 123 118 112 106 103 100 95 90 86 79 75 75 70 69 69 65 64 63 64 67 63 55 52 47 47
221 252 251 252 259 278 302 8 347 350 337 51 94 350 295 57 90 95 94 101 106 111 118 116 121 121 116 112 108 102 96 90 83 76 70 74 79 70 69 66 68 71 67 64 60 57 55 56 60
195 256 246 245 247 266 289 315 325 331 313 39 3 349 126 96 97 97 87 109 106 103 110 121 121 123 120 114 114 107 102 95 86 76 71 77 80 76 69 64 59 53 54 49 53 55 53 66 73
227 209 229 233 246 281 307 302 327 334 296 319 334 10 90 103 109 102 93 109 100 99 106 130 133 128 123 116 111 105 101 98 85 72 71 80 77 76 73 71 68 61 56 59 57 58 66 84 106
175 189 214 232 252 280 307 303 296 315 326 331 338 344 97 110 112 132 147 132 100 96 94 131 142 141 134 134 124 105 95 82 73 77 75 91 89 78 82 85 80 68 64 62 64 68 87 96 117
192 196 223 228 239 254 297 286 288 300 298 325 349 3 341 318 330 155 169 168 106 108 111 122 144 149 148 160 129 107 102 97 89 94 111 74 79 79 90 79 73 67 62 62 69 85 97 98 109
201 215 211 225 240 266 277 290 282 285 299 340 17 27 10 311 280 246 183 141 114 84 121 126 130 139 144 135 129 122 108 97 94 117 121 124 120 45 81 79 65 58 53 73 82 80 100 105 109
204 211 221 233 251 266 280 270 275 263 284 7 40 47 38 229 196 209 35 135 116 98 128 140 136 138 140 145 132 125 117 130 132 133 141 127 117 88 119 97 48 50 60 65 74 87 82 92 98
230 232 222 221 238 254 301 278 284 255 285 308 341 12 50 120 200 206 107 109 64 154 162 152 146 140 139 139 146 137 113 143 144 134 140 138 127 132 60 89 47 30 77 53 96 103 74 98 82
268 245 251 244 247 234 290 245 260 276 281 267 291 315 1 70 153 167 137 145 145 153 167 154 142 144 141 135 141 153 132 149 169 171 166 165 157 162 235 191 187 356 355 21 35 19 27 37 36
297 302 315 310 292 228 287 230 316 284 297 284 299 238 304 169 169 172 48 116 118 164 160 138 136 150 150 166 135 15 9 171 163 190 199 198 202 207 234 237 242 276 332 332 336 343 346 359 5
321 317 319 326 310 300 304 259 304 320 299 286 293 297 320 35 339 340 11 84 102 52 49 138 150 157 151 155 219 289 320 315 310 292 283 221 210 224 239 284 259 314 315 318 325 328 342 344 347
315 314 314 314 316 315 313 274 292 311 303 295 288 270 301 318 318 333 330 147 149 309 252 221 223 182 190 271 292 285 283 299 308 299 294 267 252 253 256 273 282 267 309 302 313 318 322 332 344
308 310 308 307 311 311 309 316 298 303 297 298 293 273 251 292 327 347 358 316 299 290 238 230 275 254 250 276 284 298 298 296 290 287 291 277 270 263 260 281 283 289 288 286 301 311 311 316 327
307 305 304 307 311 304 303 301 302 300 303 297 302 229 208 241 309 328 350 339 316 318 293 297 297 303 285 271 276 288 299 301 295 291 284 283 282 267 265 270 281 276 294 302 304 307 312 313 314
310 313 309 308 310 302 299 295 299 297 305 300 279 240 220 239 269 293 311 318 313 305 301 301 302 301 296 292 291 296 301 303 299 297 290 277 275 264 250 260 278 291 295 295 298 304 309 309 312
307 312 313 314 311 303 307 294 295 302 287 283 283 261 233 246 274 287 304 316 310 305 308 306 306 304 302 299 293 294 292 292 296 299 305 282 270 265 261 264 271 282 284 294 294 303 308 311 306
307 309 309 312 306 305 301 304 299 300 297 281 263 255 246 251 270 284 301 316 325 324 326 328 328 328 319 306 299 298 299 300 298 300 301 305 303 278 261 268 272 269 279 285 286 298 306 310 308
313 319 314 307 303 293 301 302 294 305 301 305 278 258 247 246 257 283 309 314 317 326 328 330 332 333 333 330 322 312 310 306 302 302 302 304 311 308 297 289 287 296 322 289 288 295 297 306 311
315 315 314 306 304 293 309 309 307 310 312 301 278 241 243 241 247 266 282 310 324 325 331 329 329 331 333 334 333 329 320 315 313 309 309 309 313 316 312 310 300 309 297 314 295 284 289 289 299
321 319 307 306 307 302 306 299 304 308 313 322 333 314 226 228 254 261 262 279 301 321 328 328 331 334 336 335 336 333 330 326 321 318 315 316 319 321 319 316 313 315 309 273 252 272 278 293 292
321 315 321 311 306 298 297 297 295 301 314 313 323 320 312 5 348 356 351 357 323 315 319 325 332 339 337 334 333 330 328 325 323 323 322 322 325 325 328 325 322 315 301 263 248 271 289 283 283
321 324 316 317 309 305 301 296 294 297 310 303 305 310 304 310 314 313 326 338 334 334 324 317 332 336 336 329 325 325 324 323 320 319 317 318 322 324 328 334 334 322 310 291 270 284 293 289 279
320 316 320 319 314 307 300 302 306 307 305 305 305 306 307 302 294 300 286 319 313 318 320 320 324 330 328 328 324 322 320 318 317 316 315 315 318 321 322 325 332 332 315 297 286 280 272 278 270
319 319 323 314 312 310 303 298 304 307 313 322 316 306 302 306 297 292 317 334 324 307 319 318 319 317 317 323 320 320 318 316 315 314 313 313 314 317 320 321 321 327 331 311 293 284 281 285 276